Location: *
(45.9500°N, 9.0833°E)
Time: 20:35:36
(UTC+00:00)

Tiros 1 - Pass Details

Date: 21 June 2021
Orbit: 630 x 664 km, 48.4° (Epoch: 05 August)

Event Time Altitude Azimuth Distance (km) Brightness Sun altitude
Rises 09:56:21 0° 246° (WSW) 2,915 10.4 61.2°
Reaches altitude 10° 09:58:40 10° 245° (WSW) 2,012 9.7 61.5°
Maximum altitude 10:03:18 81° 158° (SSE) 649 8.9 62.0°
Drops below altitude 10° 10:07:59 10° 72° (ENE) 2,038 10.0 62.6°
Sets 10:10:20 0° 72° (ENE) 2,955 10.7 62.8°
